TimeCDT,TemperatureF,Dew PointF,Humidity,Sea Level PressureIn,VisibilityMPH,Wind Direction,Wind SpeedMPH,Gust SpeedMPH,PrecipitationIn,Events,Conditions,WindDirDegrees,DateUTC
12:15 AM,22.6,15.6,74,30.31,10.0,ENE,5.8,-,N/A,,Clear,60,2013-04-03 05:15:00
12:35 AM,27.7,16.3,62,30.31,10.0,Calm,Calm,-,N/A,,Clear,0,2013-04-03 05:35:00
12:55 AM,25.3,16.0,68,30.32,10.0,Calm,Calm,-,N/A,,Clear,0,2013-04-03 05:55:00
1:15 AM,24.4,16.5,72,30.32,10.0,Calm,Calm,-,N/A,,Clear,0,2013-04-03 06:15:00
1:35 AM,23.9,16.7,74,30.32,10.0,Calm,Calm,-,N/A,,Clear,0,2013-04-03 06:35:00
1:55 AM,24.8,16.3,70,30.32,10.0,Calm,Calm,-,N/A,,Clear,0,2013-04-03 06:55:00
2:15 AM,23.9,16.7,74,30.32,10.0,Calm,Calm,-,N/A,,Clear,0,2013-04-03 07:15:00
2:35 AM,23.4,17.6,79,30.33,10.0,North,4.6,-,N/A,,Clear,10,2013-04-03 07:35:00
2:55 AM,24.3,17.8,76,30.33,10.0,Calm,Calm,-,N/A,,Clear,0,2013-04-03 07:55:00
3:15 AM,26.4,15.1,62,30.33,10.0,Calm,Calm,-,N/A,,Clear,0,2013-04-03 08:15:00
3:35 AM,24.3,14.9,68,30.33,10.0,Calm,Calm,-,N/A,,Clear,0,2013-04-03 08:35:00
3:55 AM,23.0,15.8,74,30.34,10.0,Calm,Calm,-,N/A,,Clear,0,2013-04-03 08:55:00
4:15 AM,22.6,15.8,75,30.34,10.0,Calm,Calm,-,N/A,,Clear,0,2013-04-03 09:15:00
4:35 AM,21.6,16.9,82,30.35,10.0,Calm,Calm,-,N/A,,Clear,0,2013-04-03 09:35:00
4:55 AM,20.7,15.6,81,30.36,10.0,Calm,Calm,-,N/A,,Clear,0,2013-04-03 09:55:00
5:15 AM,20.3,15.8,83,30.37,10.0,Calm,Calm,-,N/A,,Clear,0,2013-04-03 10:15:00
5:35 AM,19.8,15.4,83,30.37,10.0,Calm,Calm,-,N/A,,Clear,0,2013-04-03 10:35:00
5:55 AM,23.0,17.8,80,30.37,10.0,North,5.8,-,N/A,,Clear,350,2013-04-03 10:55:00
6:15 AM,23.9,16.5,73,30.37,10.0,North,3.5,-,N/A,,Clear,10,2013-04-03 11:15:00
6:55 AM,25.7,14.4,62,30.38,10.0,North,3.5,-,N/A,,Clear,10,2013-04-03 11:55:00
7:15 AM,27.7,16.0,62,30.39,10.0,NNE,3.5,-,N/A,,Clear,20,2013-04-03 12:15:00
7:35 AM,29.5,17.4,61,30.40,10.0,NNE,5.8,-,N/A,,Clear,20,2013-04-03 12:35:00
7:55 AM,31.1,18.0,58,30.42,10.0,NE,5.8,-,N/A,,Clear,40,2013-04-03 12:55:00
8:15 AM,31.8,16.7,54,30.43,10.0,NNE,5.8,-,N/A,,Clear,30,2013-04-03 13:15:00
8:35 AM,33.6,19.6,56,30.43,10.0,NE,8.1,-,N/A,,Clear,40,2013-04-03 13:35:00
8:55 AM,34.7,19.6,54,30.44,10.0,NE,9.2,-,N/A,,Clear,50,2013-04-03 13:55:00
9:15 AM,36.1,19.9,52,30.44,10.0,NE,9.2,-,N/A,,Clear,50,2013-04-03 14:15:00
9:35 AM,37.0,18.1,46,30.44,10.0,ENE,5.8,-,N/A,,Clear,60,2013-04-03 14:35:00
9:55 AM,37.6,16.3,42,30.44,10.0,East,4.6,-,N/A,,Clear,90,2013-04-03 14:55:00
10:15 AM,37.6,12.7,36,30.45,10.0,ENE,4.6,-,N/A,,Clear,60,2013-04-03 15:15:00
10:35 AM,38.8,16.2,40,30.45,10.0,Calm,Calm,-,N/A,,Clear,0,2013-04-03 15:35:00
10:55 AM,38.7,13.6,36,30.45,10.0,Calm,Calm,-,N/A,,Clear,0,2013-04-03 15:55:00
11:15 AM,40.8,14.4,34,30.45,10.0,SW,3.5,-,N/A,,Clear,220,2013-04-03 16:15:00
11:35 AM,40.8,13.3,33,30.45,10.0,NNW,4.6,-,N/A,,Clear,330,2013-04-03 16:35:00
11:55 AM,41.0,13.8,33,30.44,10.0,NW,3.5,-,N/A,,Clear,320,2013-04-03 16:55:00
12:15 PM,42.4,13.5,31,30.44,10.0,East,3.5,-,N/A,,Clear,80,2013-04-03 17:15:00
12:35 PM,43.0,14.2,31,30.43,10.0,NNE,9.2,-,N/A,,Clear,20,2013-04-03 17:35:00
12:55 PM,43.2,15.1,32,30.42,10.0,NE,3.5,-,N/A,,Clear,40,2013-04-03 17:55:00
1:15 PM,44.4,17.1,33,30.41,10.0,ENE,8.1,-,N/A,,Clear,70,2013-04-03 18:15:00
1:35 PM,45.0,18.0,34,30.40,10.0,NE,8.1,21.9,N/A,,Clear,50,2013-04-03 18:35:00
1:55 PM,45.0,18.0,34,30.38,10.0,ENE,13.8,18.4,N/A,,Clear,70,2013-04-03 18:55:00
2:15 PM,45.7,18.5,34,30.37,10.0,East,8.1,16.1,N/A,,Clear,90,2013-04-03 19:15:00
2:35 PM,46.4,17.6,32,30.37,10.0,ENE,10.4,18.4,N/A,,Clear,70,2013-04-03 19:35:00
2:55 PM,46.9,16.0,29,30.37,10.0,ENE,6.9,12.7,N/A,,Clear,60,2013-04-03 19:55:00
3:15 PM,46.4,14.2,27,30.36,10.0,NE,9.2,16.1,N/A,,Clear,50,2013-04-03 20:15:00
3:35 PM,46.9,13.3,26,30.37,10.0,NE,12.7,16.1,N/A,,Clear,50,2013-04-03 20:35:00
3:55 PM,47.1,11.3,24,30.36,10.0,ENE,10.4,16.1,N/A,,Clear,60,2013-04-03 20:55:00
4:15 PM,46.6,11.5,24,30.36,10.0,NNE,9.2,16.1,N/A,,Clear,30,2013-04-03 21:15:00
4:35 PM,47.3,14.2,27,30.36,10.0,East,12.7,-,N/A,,Clear,80,2013-04-03 21:35:00
4:55 PM,46.0,14.0,28,30.35,10.0,ENE,11.5,-,N/A,,Clear,70,2013-04-03 21:55:00
5:15 PM,46.4,13.8,27,30.35,10.0,NNE,6.9,-,N/A,,Clear,30,2013-04-03 22:15:00
5:35 PM,46.0,13.5,27,30.35,10.0,NE,6.9,-,N/A,,Clear,50,2013-04-03 22:35:00
5:55 PM,45.1,13.5,28,30.35,10.0,NE,5.8,-,N/A,,Clear,40,2013-04-03 22:55:00
6:15 PM,43.9,14.0,30,30.34,10.0,NNE,10.4,-,N/A,,Clear,30,2013-04-03 23:15:00
6:35 PM,42.6,14.5,32,30.34,10.0,NNE,9.2,-,N/A,,Clear,30,2013-04-03 23:35:00
6:55 PM,40.8,15.8,36,30.34,10.0,NNE,9.2,-,N/A,,Clear,30,2013-04-03 23:55:00
7:15 PM,38.3,15.6,40,30.35,10.0,NNE,11.5,-,N/A,,Clear,30,2013-04-04 00:15:00
7:35 PM,36.9,15.4,42,30.35,10.0,NNE,9.2,-,N/A,,Clear,30,2013-04-04 00:35:00
7:55 PM,35.6,15.8,44,30.34,10.0,NNE,9.2,-,N/A,,Clear,30,2013-04-04 00:55:00
8:15 PM,34.7,15.8,46,30.35,10.0,NE,8.1,-,N/A,,Clear,40,2013-04-04 01:15:00
8:35 PM,32.9,15.8,49,30.35,10.0,NE,9.2,-,N/A,,Clear,50,2013-04-04 01:35:00
8:55 PM,32.4,15.4,50,30.35,10.0,NE,6.9,-,N/A,,Clear,40,2013-04-04 01:55:00
9:15 PM,32.0,15.8,51,30.35,10.0,NE,8.1,-,N/A,,Clear,40,2013-04-04 02:15:00
9:35 PM,31.1,16.0,54,30.34,10.0,NE,8.1,-,N/A,,Clear,40,2013-04-04 02:35:00
9:55 PM,29.8,16.3,57,30.34,10.0,NNE,5.8,-,N/A,,Clear,30,2013-04-04 02:55:00
10:15 PM,28.9,16.5,60,30.34,10.0,NE,3.5,-,N/A,,Clear,40,2013-04-04 03:15:00
10:35 PM,28.9,16.5,60,30.34,10.0,Calm,Calm,-,N/A,,Clear,0,2013-04-04 03:35:00
10:55 PM,29.3,16.5,59,30.34,10.0,ENE,3.5,-,N/A,,Clear,70,2013-04-04 03:55:00
11:15 PM,28.9,17.4,62,30.34,10.0,East,5.8,-,N/A,,Clear,80,2013-04-04 04:15:00
11:35 PM,28.4,18.0,65,30.34,10.0,East,5.8,-,N/A,,Clear,90,2013-04-04 04:35:00
11:55 PM,28.2,17.6,64,30.34,10.0,East,5.8,-,N/A,,Clear,80,2013-04-04 04:55:00